Погода в Солт-Лейк-Сити

США     40°46′35″N   111°56′56″W
темп.,
°C
ветер,
м/с
пор.,
м/с
влажн.,
%
обл.,
%
осадки,
мм/ч
давл.,
гПа
погр.,
м
31 июля, сб
сб3100:00+22ю126075 0.4 101646
03:00+21юв22615 0.1 101644
06:00+20юв22625 0.1 101743
09:00+25в2245100 0.0 1017436
12:00+30сз1230100 0.0 10151400
15:00+33ссз552528 0.0 10122222
18:00+29юз3334100 0.3 10141427
21:00+22ю4665100 1.0 1016154
1 августа, вс
вс100:00+22ююв245883 1.0 1018128
03:00+21юв2260100 0.0 101833
06:00+20вюв1160100 0.0 101719
09:00+24ююв1146100 0.0 1018463
12:00+28ссз1135100 0.1 10171173
15:00+31сз552914 0.0 10141964
18:00+21юв6967100 1.8 1017390
21:00+20ююв5970100 0.4 1018417
2 августа, пн
пн200:00+19ююв587298 0.4 1018338
03:00+19юв1266100 0.0 1019102
06:00+19ююв34675 0.0 101994
09:00+24ююв23474 0.0 1018542
12:00+28сз22351 0.0 10161703
15:00+29ссз643351 0.0 10151756
18:00+21ю101071100 3.9 1018697
21:00+19ююв356735 1.4 1017136
3 августа, вт
вт300:00+18в227976 2.9 101826
03:00+18юв227576 0.4 101726
06:00+17юв237214 0.4 101844
09:00+22юв23541 0.0 1018350
12:00+28сз23353 0.0 10161524
15:00+30сз55290 0.0 10141883
18:00+30сз44270 0.0 10131509
21:00+24ю01370 0.0 101312
4 августа, ср
ср400:00+22в01410 0.0 101516
03:00+21юв22450 0.0 101520
06:00+21юв33460 0.0 101635
09:00+26юв22340 0.0 1016311
12:00+32ссз24210 0.0 10142273
15:00+34сз65170 0.0 10112846
18:00+33сз54180 0.0 10111254
21:00+26с11270 0.0 101115